W4RJG Weather Reports


time (UTC)temp
C
wind
direction
speed
KPH
gust
KPH
rain 1hr
cm
rain 24hr
cm
rain mn
cm
humidity
%
barometer
mb
20260506051003 19 2 3.2 9.7 0.00 0.00 0.00 71 1002.7
20260506045004 19 253 8.0 12.9 0.00 0.00 0.00 70 1002.7
20260506044004 20 307 3.2 16.1 0.00 0.00 0.00 69 1002.7
20260506043004 20 239 8.0 14.5 0.00 0.00 0.00 68 1002.7
20260506042004 20 345 9.7 16.1 0.00 0.00 0.00 68 1002.7
20260506033005 20 308 4.8 12.9 0.00 0.00 0.00 63 1002.4
20260506032004 20 306 4.8 8.0 0.00 0.00 0.00 62 1002.7
20260506031005 20 347 1.6 4.8 0.00 0.00 0.00 60 1002.7
20260506030004 20 227 1.6 8.0 0.00 0.00 0.00 59 1002.7
20260506024004 20 271 1.6 4.8 0.00 0.00 0.00 59 1002.7
20260506023005 20 209 3.2 4.8 0.00 0.00 0.00 58 1002.7
20260506021005 21 315 1.6 4.8 0.00 0.00 0.00 57 1002.7
20260506015004 21 84 3.2 4.8 0.00 0.00 0.00 55 1002.4
20260506014004 21 7 0.0 8.0 0.00 0.00 0.00 55 1002.4
20260506012005 21 220 1.6 4.8 0.00 0.00 0.00 54 1002.0
20260506011004 21 287 1.6 4.8 0.00 0.00 0.00 54 1002.0
20260506010004 22 305 0.0 4.8 0.00 0.00 0.00 53 1002.0
20260506005004 22 300 1.6 4.8 0.00 0.00 0.00 51 1001.7
20260506004005 22 338 0.0 4.8 0.00 0.00 0.00 50 1001.7
20260506003005 22 228 1.6 4.8 0.00 0.00 0.00 49 1001.7
20260506002004 23 234 1.6 4.8 0.00 0.00 0.00 46 1001.7
20260506001004 23 248 4.8 4.8 0.00 0.00 0.00 45 1001.7
20260506000005 24 41 0.0 4.8 0.00 0.00 0.00 44 1001.4
20260505235005 25 323 1.6 9.7 0.00 0.00 0.00 43 1001.4
20260505234004 25 352 8.0 14.5 0.00 0.00 0.00 42 1001.4
20260505233004 25 333 11.3 12.9 0.00 0.00 0.00 43 1001.4
20260505232004 25 324 4.8 11.3 0.00 0.00 0.00 43 1001.4
20260505231004 25 311 3.2 14.5 0.00 0.00 0.00 43 1001.4
20260505225004 26 358 8.0 14.5 0.00 0.00 0.00 42 1001.4
20260505224004 26 313 4.8 19.3 0.00 0.00 0.00 42 1001.4
20260505223004 26 316 8.0 12.9 0.00 0.00 0.00 41 1001.4
20260505222004 26 328 11.3 20.9 0.00 0.00 0.00 40 1001.7
20260505221003 26 348 14.5 20.9 0.00 0.00 0.00 39 1001.7
20260505220005 26 345 11.3 16.1 0.00 0.00 0.00 40 1001.7
20260505215003 27 218 4.8 20.9 0.00 0.00 0.00 39 1001.7
20260505211004 27 320 8.0 20.9 0.00 0.00 0.00 38 1001.7
20260505210005 27 277 4.8 14.5 0.00 0.00 0.00 36 1001.7
20260505205006 28 315 12.9 22.5 0.00 0.00 0.00 35 1002.0
20260505203008 27 335 12.9 32.2 0.00 0.00 0.00 34 1002.0
20260505202008 28 276 9.7 29.0 0.00 0.00 0.00 34 1002.0
20260505201005 28 322 3.2 20.9 0.00 0.00 0.00 35 1002.0
20260505200005 28 343 8.0 16.1 0.00 0.00 0.00 34 1002.0
20260505194005 28 349 20.9 24.1 0.00 0.00 0.00 34 1002.4
20260505193006 27 336 12.9 24.1 0.00 0.00 0.00 33 1002.6
20260505192004 27 354 16.1 20.9 0.00 0.00 0.00 33 1002.7
20260505191006 27 26 8.0 14.5 0.00 0.00 0.00 34 1002.7
20260505190005 27 311 4.8 12.9 0.00 0.00 0.00 36 1002.7
20260505185006 27 254 4.8 16.1 0.00 0.00 0.00 35 1003.0
20260505184006 28 5 9.7 16.1 0.00 0.00 0.00 34 1003.0
20260505183007 28 303 14.5 16.1 0.00 0.00 0.00 33 1003.0
20260505182005 28 316 8.0 19.3 0.00 0.00 0.00 32 1003.4
20260505181006 28 275 6.4 16.1 0.00 0.00 0.00 33 1003.4
20260505180005 28 337 4.8 19.3 0.00 0.00 0.00 35 1003.4
20260505175006 28 271 8.0 20.9 0.00 0.00 0.00 35 1003.7
20260505174007 28 322 4.8 19.3 0.00 0.00 0.00 35 1003.7
20260505172005 27 346 8.0 20.9 0.00 0.00 0.00 36 1003.8
20260505170007 27 101 8.0 19.3 0.00 0.00 0.00 37 1004.4
20260505165005 27 93 4.8 19.3 0.00 0.00 0.00 40 1004.4
20260505163009 26 349 8.0 16.1 0.00 0.00 0.00 39 1004.4
20260505162008 26 294 9.7 12.9 0.00 0.00 0.00 40 1004.7
20260505161007 26 6 3.2 12.9 0.00 0.00 0.00 42 1004.7
20260505153006 25 350 8.0 19.3 0.00 0.00 0.00 47 1005.1
20260505152005 25 333 8.0 11.3 0.00 0.00 0.00 46 1005.1
20260505151004 24 352 4.8 14.5 0.00 0.00 0.00 47 1005.1
20260505123005 16 320 4.8 4.8 0.00 0.00 0.00 72 1005.4
20260505121004 15 308 3.2 4.8 0.00 0.00 0.00 76 1005.1
20260505120005 15 344 4.8 4.8 0.00 0.00 0.00 77 1005.1
20260505115004 14 338 4.8 4.8 0.00 0.00 0.00 78 1005.1
20260505114004 13 344 0.0 3.2 0.00 0.00 0.00 80 1005.1
20260505113005 12 342 0.0 0.0 0.00 0.00 0.00 83 1004.7
20260505111004 11 220 1.6 3.2 0.00 0.00 0.00 86 1004.7
20260505102005 11 10 0.0 0.0 0.00 0.00 0.00 83 1004.4
20260505101007 12 280 0.0 1.6 0.00 0.00 0.00 81 1004.4
20260505100005 12 66 0.0 1.6 0.00 0.00 0.00 81 1004.4
20260505095004 12 357 0.0 0.0 0.00 0.00 0.00 80 1004.1
20260505094005 12 309 0.0 0.0 0.00 0.00 0.00 79 1004.1
20260505093004 12 279 0.0 0.0 0.00 0.00 0.00 79 1004.1
20260505091005 12 7 0.0 0.0 0.00 0.00 0.00 77 1004.1
20260505085005 13 337 0.0 0.0 0.00 0.00 0.00 75 1003.7
20260505083005 13 346 0.0 0.0 0.00 0.00 0.00 72 1003.7
20260505082005 14 300 0.0 4.8 0.00 0.00 0.00 70 1003.7
20260505081005 15 349 0.0 4.8 0.00 0.00 0.00 70 1003.7
20260505080005 15 334 0.0 3.2 0.00 0.00 0.00 68 1003.4
20260505075005 15 325 3.2 3.2 0.00 0.00 0.00 68 1003.4
20260505073005 15 331 1.6 3.2 0.00 0.00 0.00 66 1003.4
20260505072005 16 332 0.0 0.0 0.00 0.00 0.00 64 1003.0
20260505070005 16 350 1.6 1.6 0.00 0.00 0.00 62 1003.0
20260505064004 17 325 1.6 11.3 0.00 0.00 0.00 60 1003.0
20260505063013 17 254 4.8 4.8 0.00 0.00 0.00 59 1003.0
20260505062006 17 331 3.2 9.7 0.00 0.00 0.00 58 1003.0
20260505060009 17 279 4.8 9.7 0.00 0.00 0.00 57 1002.7